Temperature
21 21 21 21 21 21 19 19 20 20 19 17 16 14 12 11 12 10 8 9 9 10 11 12 13 13 14 14 14 15 15 15 15 15 15 15 14 14 14 14 15 15 15 15 15 15 15 16 16
22 21 21 22 21 19 19 19 18 19 19 17 15 13 12 10 9 9 8 9 9 9 11 12 13 13 14 14 14 14 14 15 15 15 15 15 15 15 14 14 14 14 14 15 15 15 15 15 15
22 22 22 21 19 18 18 18 18 18 17 16 13 10 9 9 8 8 8 9 9 9 10 11 12 13 13 13 14 14 14 14 14 14 14 15 15 15 15 15 14 14 14 14 15 15 15 15 15
21 22 23 19 16 16 17 17 19 19 16 16 14 11 8 8 8 8 9 9 9 10 10 11 12 12 12 13 13 13 13 13 13 14 14 14 14 14 14 14 14 14 14 14 14 14 15 15 15
22 23 20 18 16 15 16 16 15 16 16 14 12 11 9 9 9 9 9 9 9 10 10 11 11 12 12 12 12 12 13 13 13 13 13 13 13 13 14 14 14 14 14 14 14 14 14 14 15
24 25 20 17 16 15 14 14 15 14 13 13 13 11 9 9 9 9 9 8 9 9 10 11 11 11 11 11 11 12 12 12 12 12 12 12 12 13 13 13 13 13 14 14 14 14 14 14 14
24 22 20 18 17 16 15 13 13 12 12 11 13 12 10 9 9 9 8 8 8 9 10 10 11 11 11 11 11 11 11 11 11 12 12 12 12 12 12 12 12 13 13 13 13 14 14 14 14
24 22 21 19 17 15 13 12 11 11 10 10 11 11 9 9 8 8 8 8 8 9 10 10 10 10 11 11 11 11 10 10 11 11 11 12 12 12 12 12 12 12 12 12 13 13 13 13 14
24 20 18 18 17 15 14 13 11 10 9 9 9 8 8 8 8 8 8 8 8 9 9 9 9 10 10 10 10 10 9 9 9 9 10 10 11 11 11 11 11 12 12 12 12 12 12 13 13
20 17 16 16 16 15 14 13 12 11 10 9 9 8 8 7 7 7 7 7 7 7 8 8 8 8 9 9 9 8 8 7 7 7 7 7 8 8 9 10 10 11 11 11 11 12 12 12 12
19 15 15 14 14 14 13 12 12 11 9 9 8 8 7 7 6 6 6 5 5 6 6 7 7 7 7 7 7 6 6 5 5 5 4 4 5 6 7 8 9 9 10 10 11 11 12 12 12
16 16 15 14 13 13 12 11 9 9 8 8 7 7 6 6 5 5 5 5 5 6 6 6 6 6 5 5 5 4 4 3 3 3 2 2 3 4 4 5 6 6 7 8 9 10 11 11 11
14 13 13 12 12 11 11 10 9 8 8 8 7 7 6 5 5 4 4 5 5 5 4 4 4 3 3 3 3 3 2 2 1 1 1 1 1 1 2 3 4 4 4 5 6 8 9 9 10
14 12 12 12 11 11 10 10 9 8 8 8 7 7 6 5 5 4 4 4 3 3 3 3 3 3 3 3 2 2 1 1 0 -0 -0 -1 -1 -0 -0 1 2 2 2 3 4 5 6 7 8
13 13 13 12 12 11 11 10 9 8 9 9 8 7 6 5 5 3 3 3 2 2 2 2 2 2 2 2 1 1 0 -0 -1 -1 -1 -1 -2 -2 -2 -1 -1 -0 -0 1 2 3 3 5 6
16 15 14 13 13 12 12 11 9 9 9 9 8 7 7 6 4 3 3 2 2 2 1 1 0 0 0 0 -0 -0 -1 -1 -1 -2 -2 -2 -3 -3 -3 -3 -2 -2 -2 -1 -0 0 2 3 4
17 18 16 14 14 14 12 11 9 9 9 9 8 7 7 6 5 3 3 2 1 1 -0 -0 -0 -1 -1 -1 -1 -1 -2 -2 -3 -3 -3 -3 -4 -4 -4 -4 -4 -4 -3 -2 -2 -1 -1 0 2
19 20 19 15 13 14 13 10 8 8 9 9 8 7 6 5 4 3 2 1 0 -0 -1 -1 -1 -1 -2 -2 -2 -2 -3 -3 -4 -4 -4 -5 -5 -5 -5 -5 -5 -5 -4 -4 -4 -3 -2 -2 -1
19 19 18 14 12 13 13 10 8 8 8 8 7 7 6 5 4 3 2 1 -0 -1 -1 -2 -3 -3 -4 -4 -4 -4 -4 -4 -5 -5 -5 -6 -6 -6 -6 -6 -6 -6 -6 -5 -5 -5 -4 -3 -2
19 19 18 13 12 12 12 11 9 8 8 7 7 6 6 5 4 3 2 0 -1 -2 -3 -3 -4 -4 -5 -5 -6 -6 -6 -6 -6 -6 -6 -6 -6 -6 -6 -6 -7 -7 -6 -6 -6 -5 -5 -4 -3
19 17 16 15 12 11 11 11 9 8 8 7 7 6 5 4 3 2 1 -0 -2 -3 -3 -4 -5 -5 -6 -6 -6 -6 -6 -6 -6 -6 -7 -7 -7 -7 -7 -7 -7 -7 -7 -7 -7 -6 -5 -5 -4
17 15 15 15 12 12 11 11 9 7 7 7 7 6 5 4 3 2 1 -1 -2 -3 -4 -4 -5 -6 -6 -7 -7 -8 -8 -8 -8 -8 -8 -8 -8 -8 -8 -8 -8 -8 -8 -8 -7 -7 -6 -5 -4
15 14 14 14 13 13 11 11 10 8 7 7 7 6 5 4 3 1 0 -1 -3 -4 -4 -5 -6 -6 -7 -7 -8 -8 -8 -9 -9 -9 -9 -9 -9 -9 -9 -9 -9 -9 -9 -8 -8 -7 -7 -6 -5
14 14 14 14 13 13 15 12 10 8 8 7 6 5 4 3 2 1 -1 -2 -3 -4 -5 -5 -6 -7 -7 -7 -8 -9 -9 -9 -9 -9 -10 -10 -10 -10 -10 -10 -10 -10 -9 -9 -8 -8 -7 -6 -6
15 14 14 14 13 14 14 14 8 7 6 6 5 5 4 3 1 -0 -1 -3 -4 -4 -5 -6 -6 -7 -7 -8 -8 -9 -9 -10 -10 -10 -10 -10 -10 -10 -10 -11 -11 -10 -10 -9 -9 -8 -7 -7 -6
15 15 13 13 14 14 14 11 5 6 6 6 6 5 3 2 1 -1 -2 -3 -4 -5 -5 -6 -6 -7 -8 -8 -9 -9 -10 -10 -10 -11 -11 -11 -11 -11 -11 -11 -11 -11 -11 -10 -9 -9 -8 -7 -6
14 14 14 13 13 13 14 6 6 6 6 6 5 4 3 1 -0 -1 -2 -3 -4 -5 -5 -6 -7 -7 -8 -9 -9 -9 -10 -10 -11 -11 -11 -11 -11 -12 -12 -12 -12 -11 -11 -10 -10 -9 -8 -7 -7
14 13 13 13 12 12 13 11 7 6 6 5 5 3 2 1 -1 -2 -3 -4 -4 -5 -6 -6 -7 -8 -8 -9 -9 -10 -10 -11 -11 -11 -12 -12 -12 -12 -12 -12 -12 -12 -11 -11 -10 -9 -8 -8 -7
14 14 14 13 12 11 10 9 7 5 5 5 4 3 1 0 -1 -2 -3 -4 -5 -5 -6 -7 -8 -8 -9 -9 -9 -10 -11 -11 -12 -12 -12 -12 -12 -12 -12 -12 -12 -12 -12 -11 -11 -9 -9 -8 -7
12 13 13 12 12 12 10 7 7 5 6 5 4 2 1 -1 -2 -3 -4 -4 -5 -6 -6 -7 -8 -9 -9 -9 -10 -10 -11 -11 -12 -12 -12 -13 -13 -13 -13 -13 -13 -13 -12 -12 -11 -10 -9 -8 -8
Wind_Speed
18 17 6 1 1 9 16 15 16 12 9 18 16 14 14 14 10 7 5 12 16 16 20 25 29 30 30 30 29 29 28 27 26 25 23 21 19 18 16 15 15 14 14 13 13 12 12 12 12
13 11 4 2 7 12 13 13 17 19 12 12 15 15 12 11 10 5 7 12 16 16 18 24 27 28 29 30 29 29 28 28 27 26 25 24 22 20 19 17 16 16 15 15 14 14 13 12 12
11 8 2 5 12 11 10 11 12 19 21 11 9 11 8 7 6 5 8 13 15 16 18 23 27 27 28 29 29 29 29 28 28 28 27 25 24 23 21 19 18 17 16 16 15 14 14 12 12
5 3 4 12 18 16 14 13 10 12 13 15 11 10 7 5 3 5 8 13 13 17 20 23 28 28 28 28 29 28 29 28 28 29 28 27 25 25 24 22 21 19 17 17 16 15 15 13 12
4 3 10 11 12 11 14 16 18 18 8 13 13 9 7 5 2 4 7 13 12 16 22 25 29 30 29 28 29 28 28 28 28 28 29 28 26 25 24 24 24 23 21 19 17 16 15 14 13
3 4 10 11 13 11 12 15 13 16 12 10 9 9 6 5 6 6 9 12 18 19 22 25 29 31 31 29 29 28 27 28 28 28 30 29 27 25 25 25 25 25 24 22 20 18 16 15 14
6 9 11 14 11 7 7 9 15 11 11 11 8 7 6 9 7 8 10 14 18 21 23 26 28 29 31 30 30 29 28 28 28 28 30 29 28 26 26 26 27 26 26 25 23 21 18 17 16
3 6 12 10 8 6 6 7 8 11 9 9 12 8 7 8 10 10 10 10 13 19 23 26 27 29 30 29 29 30 28 28 28 27 29 29 28 27 26 27 28 27 27 26 25 24 22 20 17
5 8 9 7 7 8 9 7 7 9 13 14 12 13 10 10 10 11 11 12 14 17 20 25 26 27 28 27 27 28 26 27 27 26 28 27 25 24 23 27 28 28 28 27 26 27 26 22 18
9 5 7 9 10 11 12 11 8 9 14 13 11 12 11 11 11 12 14 15 16 17 16 22 24 26 27 25 25 24 24 25 25 25 26 24 24 23 23 26 27 27 28 26 27 28 25 22 17
7 8 8 12 14 14 12 10 9 9 10 11 10 10 10 12 12 13 13 13 13 13 15 19 24 26 26 24 23 22 22 22 24 25 25 24 22 21 22 22 22 24 23 21 24 23 21 20 17
8 12 11 10 10 11 10 8 9 13 9 9 9 10 10 11 12 13 13 13 13 13 15 16 24 24 25 25 22 22 21 21 22 24 24 23 19 19 20 19 21 20 19 18 19 18 20 20 20
10 9 13 14 15 15 15 13 11 11 9 8 9 10 10 11 11 11 12 12 13 14 15 13 22 22 24 23 21 21 21 21 23 23 23 23 18 16 19 19 19 20 18 17 16 15 14 14 16
12 16 14 12 11 9 12 10 7 7 8 8 8 8 9 10 11 11 12 13 14 14 15 14 20 24 25 23 21 21 22 22 22 22 24 23 22 20 18 17 17 18 19 20 17 15 12 10 11
16 12 10 8 8 9 9 8 7 8 6 6 7 8 9 9 10 11 10 11 12 13 14 14 19 25 25 23 23 22 22 23 22 22 23 24 25 22 20 15 14 17 21 21 17 14 11 11 12
9 8 7 8 9 8 5 4 10 7 4 5 6 8 8 9 10 10 10 10 11 12 14 14 21 22 23 22 22 22 22 23 22 22 22 24 26 25 22 15 13 20 21 17 11 11 12 11 12
8 7 7 7 5 6 6 5 10 6 4 4 5 7 8 8 10 10 10 10 11 12 13 14 15 18 21 21 22 22 22 22 22 22 21 24 25 26 24 18 17 21 17 12 12 13 12 13 13
4 5 5 8 4 4 6 7 9 6 3 3 6 7 8 9 9 9 9 10 11 11 12 13 13 17 21 19 19 17 17 19 21 20 21 25 24 26 24 19 20 20 12 10 12 14 13 12 13
7 7 5 6 4 3 5 9 9 7 5 2 6 7 8 9 9 9 9 10 10 11 12 13 13 14 14 12 13 13 13 12 13 19 23 24 24 26 23 18 18 17 12 14 15 14 14 12 12
5 5 3 5 4 2 3 6 10 9 6 5 4 5 7 8 9 9 9 9 10 11 12 12 12 12 12 11 11 9 11 9 14 19 22 23 24 25 22 18 15 15 12 14 15 15 12 12 11
3 5 6 3 5 3 4 6 12 10 8 6 4 3 7 9 9 9 8 9 10 10 11 13 12 12 13 17 13 12 8 9 9 11 8 20 24 24 22 19 17 15 12 12 15 15 15 13 12
4 6 6 4 3 4 7 3 8 11 8 8 4 6 8 8 8 8 9 9 9 9 9 10 11 10 12 15 11 14 12 12 13 11 10 19 24 24 23 21 20 16 12 13 13 14 14 14 12
5 4 6 6 5 4 6 5 5 9 8 8 5 8 8 8 8 9 9 9 9 9 9 9 10 10 11 13 11 11 11 10 11 12 12 10 17 21 22 22 21 17 12 11 14 14 14 12 12
6 7 7 5 4 5 4 6 4 2 6 7 7 8 8 8 9 9 8 8 8 8 8 9 10 10 9 10 10 11 12 13 14 14 12 12 10 13 19 23 21 19 15 12 13 14 15 13 14
4 6 3 3 4 3 2 0 6 8 11 9 6 6 8 9 9 8 9 8 8 9 9 9 10 11 11 11 11 11 12 11 12 13 12 13 12 11 10 20 18 17 17 18 15 15 15 15 14
6 5 4 5 6 6 3 4 7 9 7 4 3 7 8 8 8 8 8 8 8 9 9 10 11 11 11 11 11 9 10 9 9 11 12 12 11 10 15 20 20 20 21 20 15 14 15 14 14
7 5 2 4 7 6 1 7 6 7 6 3 6 8 8 8 8 8 8 8 8 8 9 10 10 11 11 11 11 10 10 11 11 10 9 7 10 16 19 20 18 19 19 17 14 13 15 15 13
3 4 4 4 5 6 8 4 5 6 3 6 7 8 8 8 8 8 8 8 8 8 8 9 9 10 10 11 11 14 11 10 10 9 11 11 12 17 16 15 15 16 16 16 14 15 16 16 15
2 3 2 4 4 3 6 1 5 7 5 4 6 8 7 8 8 8 8 8 8 8 8 8 9 10 10 11 11 12 12 10 11 9 11 10 12 15 13 14 15 17 17 15 15 16 18 17 15
2 4 3 3 5 4 5 0 7 7 4 5 6 7 7 8 8 8 8 9 8 9 9 9 10 10 11 11 12 13 12 11 12 12 12 15 13 14 15 15 16 17 17 17 16 18 19 18 14
Wind_Direction
310 297 270 263 71 71 67 53 44 51 79 62 58 69 75 55 41 77 316 329 350 2 12 12 17 21 24 24 23 22 21 19 17 13 8 2 355 348 341 335 331 329 328 327 325 320 310 301 297
302 299 302 277 88 82 69 62 55 40 80 87 58 55 63 62 38 52 342 338 355 7 20 16 19 23 24 25 24 23 21 19 17 14 10 6 1 356 349 342 336 332 327 323 318 315 308 296 288
277 270 278 48 61 61 63 47 84 64 44 63 74 49 51 38 28 8 343 344 2 11 22 20 19 21 23 23 22 21 20 18 17 15 11 7 4 1 357 351 345 337 331 323 316 311 308 299 287
290 256 75 76 74 47 44 28 25 91 55 49 80 72 72 38 3 347 348 1 11 15 16 19 18 18 19 20 18 18 17 15 15 14 11 8 6 4 3 1 355 348 338 329 319 312 307 302 291
226 89 82 85 79 64 43 45 50 58 61 59 76 88 82 59 29 18 19 18 18 17 16 16 16 15 13 14 14 13 13 11 11 11 9 6 4 5 5 5 2 356 348 338 326 314 308 302 295
256 108 96 93 102 97 63 38 55 63 58 41 88 101 77 51 27 37 36 29 25 18 16 14 14 12 9 7 9 7 8 8 6 8 6 3 1 1 3 3 1 357 352 346 336 322 310 302 295
48 82 103 112 107 85 73 62 44 55 45 14 12 91 81 42 25 36 44 31 27 22 17 14 13 10 6 2 4 2 3 4 2 4 4 1 358 358 358 360 356 354 351 347 341 334 321 306 294
341 98 102 100 95 96 77 70 55 41 48 26 27 67 64 32 32 30 37 32 24 23 18 14 11 9 4 358 360 359 359 1 359 1 1 359 356 355 354 355 351 351 349 346 343 342 332 316 299
21 69 52 35 97 113 127 107 84 81 78 69 65 70 64 41 35 30 27 24 21 20 16 13 8 7 3 358 357 354 355 358 357 358 357 357 353 350 351 352 347 349 346 345 347 344 337 329 309
37 70 55 39 80 101 95 95 110 96 79 79 76 67 59 49 35 30 27 21 18 15 11 12 6 4 2 358 355 352 352 354 354 354 353 354 351 348 351 348 344 346 343 347 346 343 341 338 326
53 90 93 72 86 97 94 83 75 105 67 63 66 63 51 49 40 31 27 22 18 13 10 10 5 3 2 357 354 350 350 351 350 350 349 351 349 348 350 345 340 341 340 345 344 343 337 332 327
79 76 97 105 98 95 91 81 62 69 89 81 70 62 55 46 43 32 23 19 15 12 9 7 4 2 0 356 352 349 348 348 346 345 348 350 350 350 347 342 336 337 337 341 343 334 330 331 327
86 86 77 80 79 85 90 90 95 96 101 97 84 68 57 51 42 38 25 20 15 11 7 4 1 2 359 355 352 348 346 346 344 343 346 351 355 348 344 338 336 332 338 342 334 329 331 329 326
110 113 114 112 111 108 107 111 105 118 126 116 98 80 64 55 48 36 26 19 13 9 5 2 1 2 358 355 352 347 344 345 343 342 344 352 356 345 343 335 333 332 341 336 329 327 327 326 327
123 119 127 137 125 140 136 108 116 138 149 128 106 95 79 61 56 43 31 22 14 8 5 3 0 0 357 352 352 347 344 345 343 341 344 353 351 343 342 334 330 335 338 333 330 326 329 330 330
162 152 147 162 160 171 250 158 140 155 148 100 77 72 65 64 59 48 34 24 16 10 7 4 1 358 355 351 352 346 344 344 341 341 345 352 346 343 342 335 331 338 339 334 332 337 338 331 327
200 219 139 154 174 166 229 139 147 160 160 127 83 63 52 48 53 48 34 26 17 13 8 3 0 358 353 351 350 343 344 341 339 341 347 348 344 344 341 333 335 339 337 336 338 337 334 330 327
343 321 115 135 133 214 234 128 144 165 184 125 78 58 49 38 42 46 33 28 19 13 9 1 358 357 352 352 346 341 342 339 337 341 347 345 343 342 337 334 338 337 334 336 334 331 333 329 325
333 343 57 103 119 250 234 153 158 162 188 103 59 38 43 37 31 35 32 29 17 11 8 360 357 354 352 352 345 342 340 337 334 342 345 341 341 339 336 339 337 335 334 332 331 332 327 327 326
326 328 70 135 130 256 244 185 163 168 165 81 33 34 42 38 21 19 23 27 16 10 6 357 356 351 351 349 340 336 331 329 332 340 336 337 340 338 338 339 337 335 331 329 330 329 325 324 332
339 13 354 359 131 233 263 230 171 162 139 146 207 102 55 39 19 10 17 24 15 11 5 355 350 348 348 347 341 338 329 331 335 336 331 337 339 336 335 337 338 333 331 327 328 326 326 323 320
11 30 331 298 252 230 179 272 162 161 165 186 182 78 53 43 22 14 20 20 13 11 2 352 346 344 346 347 343 341 340 337 335 333 328 335 336 333 334 338 338 332 329 325 324 326 321 317 315
334 329 286 274 258 268 191 243 118 145 184 182 111 65 48 41 27 22 24 18 12 10 359 347 342 342 344 346 341 338 334 332 330 329 330 332 331 331 335 338 336 330 325 322 322 320 316 313 308
290 270 235 250 247 261 204 188 133 178 164 113 69 48 39 35 28 22 18 13 8 7 355 344 342 341 342 343 339 338 333 333 332 333 332 331 328 330 335 335 333 328 324 322 320 318 314 310 305
286 315 307 269 229 219 82 222 93 73 72 76 61 43 43 35 26 14 8 5 5 360 351 345 344 341 342 341 340 335 332 331 329 332 330 329 330 331 329 333 330 326 324 323 323 321 315 309 305
319 338 15 316 307 315 207 113 110 101 100 111 85 61 44 32 25 15 7 8 3 355 350 346 342 339 340 340 338 331 331 329 326 327 325 325 327 326 327 330 327 326 325 325 324 322 317 313 309
339 35 36 278 278 277 141 96 133 132 156 105 50 49 36 29 25 14 7 9 0 353 350 344 340 337 338 339 336 330 330 327 326 324 321 323 325 327 329 327 327 327 325 325 325 322 318 315 311
346 336 315 301 324 307 299 103 161 164 112 43 34 40 28 28 24 11 7 5 358 353 346 342 338 335 335 337 335 333 327 324 325 323 324 325 325 326 326 327 329 328 327 326 325 322 319 317 314
206 225 275 279 252 269 296 16 96 110 85 39 39 47 33 32 24 11 6 360 353 350 344 340 337 338 337 335 330 326 325 325 326 324 324 323 322 325 326 329 330 329 328 327 324 322 320 317 314
336 343 336 306 308 296 293 115 125 128 118 74 58 53 45 39 27 14 4 353 350 348 344 341 340 340 337 333 328 325 326 327 326 325 325 324 321 323 327 330 329 329 328 325 323 321 321 317 315
Height
1522 1521 1523 1525 1528 1539 1553 1556 1552 1551 1557 1563 1562 1565 1574 1582 1589 1601 1601 1595 1591 1586 1582 1579 1576 1574 1571 1569 1566 1564 1562 1560 1558 1556 1554 1552 1551 1549 1547 1546 1545 1543 1543 1542 1541 1541 1541 1541 1541
1523 1522 1526 1527 1535 1554 1563 1561 1561 1561 1561 1563 1567 1573 1579 1588 1595 1598 1596 1594 1592 1588 1583 1580 1577 1574 1571 1569 1567 1564 1562 1560 1558 1556 1554 1552 1550 1548 1546 1545 1543 1542 1540 1539 1538 1538 1538 1538 1538
1524 1525 1530 1534 1548 1562 1568 1567 1565 1566 1566 1567 1574 1581 1587 1596 1599 1599 1598 1595 1592 1589 1585 1581 1578 1575 1572 1569 1566 1564 1562 1559 1557 1555 1553 1551 1549 1547 1545 1543 1542 1540 1539 1537 1536 1535 1535 1535 1535
1526 1529 1534 1550 1567 1574 1573 1572 1565 1565 1570 1574 1578 1588 1595 1601 1601 1600 1598 1596 1593 1589 1586 1582 1578 1575 1572 1569 1566 1564 1561 1559 1556 1554 1552 1549 1547 1545 1543 1541 1539 1538 1536 1535 1534 1532 1532 1531 1531
1529 1532 1543 1561 1572 1580 1578 1576 1572 1571 1576 1582 1581 1593 1600 1603 1602 1601 1599 1596 1593 1589 1586 1583 1579 1576 1572 1570 1567 1564 1561 1558 1555 1552 1550 1548 1545 1543 1540 1538 1536 1535 1533 1532 1531 1530 1529 1528 1528
1531 1532 1550 1567 1575 1580 1583 1581 1579 1581 1583 1585 1587 1593 1603 1605 1604 1603 1600 1597 1593 1590 1586 1583 1580 1576 1573 1570 1567 1564 1561 1557 1554 1551 1548 1546 1543 1540 1538 1535 1533 1531 1529 1528 1527 1526 1525 1525 1524
1532 1538 1553 1565 1573 1579 1583 1585 1586 1587 1587 1588 1589 1595 1604 1605 1605 1603 1600 1597 1594 1590 1586 1583 1579 1576 1573 1570 1567 1563 1560 1556 1553 1550 1547 1544 1541 1538 1535 1532 1530 1528 1526 1524 1523 1522 1521 1520 1520
1535 1541 1553 1561 1571 1581 1586 1588 1591 1591 1593 1594 1592 1598 1605 1607 1605 1603 1601 1597 1594 1590 1586 1582 1579 1576 1572 1569 1566 1562 1559 1555 1551 1547 1544 1541 1538 1535 1532 1529 1526 1524 1522 1520 1518 1517 1516 1516 1516
1538 1552 1566 1567 1573 1581 1586 1589 1593 1598 1598 1598 1601 1604 1607 1607 1605 1602 1600 1596 1593 1589 1586 1582 1578 1575 1571 1567 1564 1560 1556 1552 1548 1544 1541 1537 1534 1531 1528 1525 1523 1520 1518 1516 1514 1512 1511 1511 1510
1548 1565 1576 1576 1575 1581 1586 1590 1594 1599 1600 1603 1605 1607 1607 1606 1604 1601 1599 1595 1592 1589 1585 1582 1578 1574 1570 1566 1561 1557 1553 1550 1546 1542 1538 1534 1530 1527 1524 1521 1518 1516 1513 1511 1509 1508 1506 1506 1505
1560 1572 1580 1582 1583 1586 1589 1593 1596 1600 1605 1607 1608 1608 1608 1607 1604 1602 1600 1597 1594 1591 1587 1582 1578 1574 1569 1564 1559 1555 1551 1547 1543 1539 1535 1531 1527 1523 1519 1516 1513 1510 1508 1505 1503 1502 1501 1500 1499
1569 1577 1581 1586 1588 1590 1592 1596 1600 1602 1608 1609 1610 1609 1609 1607 1605 1603 1601 1598 1595 1591 1587 1583 1578 1573 1568 1563 1558 1554 1549 1545 1541 1537 1533 1529 1524 1520 1516 1513 1510 1507 1503 1500 1498 1497 1495 1494 1494
1575 1584 1586 1589 1590 1593 1595 1599 1602 1607 1609 1610 1610 1610 1609 1608 1607 1605 1602 1599 1596 1591 1587 1582 1577 1572 1566 1561 1557 1552 1548 1544 1540 1536 1532 1528 1522 1518 1513 1510 1506 1503 1500 1497 1494 1492 1490 1488 1488
1578 1584 1589 1592 1593 1596 1598 1601 1603 1608 1609 1610 1610 1610 1610 1609 1607 1605 1602 1599 1596 1591 1587 1582 1577 1571 1566 1561 1556 1551 1547 1543 1538 1534 1531 1527 1521 1516 1511 1507 1504 1500 1497 1493 1491 1488 1486 1483 1482
1580 1585 1590 1592 1594 1596 1597 1602 1605 1608 1609 1610 1610 1610 1610 1610 1608 1606 1603 1600 1596 1592 1587 1581 1576 1571 1565 1560 1555 1551 1546 1541 1537 1533 1529 1525 1520 1515 1510 1506 1502 1498 1494 1490 1487 1484 1482 1479 1477
1578 1582 1586 1590 1591 1594 1598 1599 1605 1607 1608 1609 1611 1611 1611 1610 1609 1606 1604 1600 1596 1591 1586 1581 1575 1569 1564 1559 1554 1549 1545 1540 1535 1531 1527 1522 1518 1513 1508 1504 1500 1496 1491 1488 1484 1481 1477 1474 1471
1574 1573 1579 1588 1588 1590 1593 1596 1603 1606 1608 1609 1611 1611 1611 1611 1609 1606 1604 1600 1596 1591 1585 1580 1574 1568 1562 1557 1552 1547 1543 1538 1534 1530 1525 1520 1516 1511 1507 1502 1498 1494 1489 1485 1482 1477 1474 1470 1467
1569 1563 1568 1582 1588 1588 1589 1596 1602 1605 1608 1609 1610 1611 1611 1611 1609 1607 1604 1600 1596 1590 1585 1579 1573 1567 1561 1556 1550 1545 1540 1536 1532 1528 1524 1519 1514 1509 1505 1501 1496 1492 1487 1483 1479 1475 1471 1468 1464
1567 1567 1571 1583 1587 1588 1587 1594 1601 1605 1607 1609 1610 1611 1611 1611 1610 1607 1604 1599 1594 1589 1584 1578 1572 1566 1560 1554 1548 1542 1537 1533 1529 1526 1522 1517 1512 1508 1504 1500 1495 1490 1486 1482 1478 1473 1469 1466 1462
1568 1569 1573 1584 1586 1587 1587 1591 1597 1602 1606 1608 1610 1611 1610 1610 1608 1606 1603 1598 1593 1588 1583 1577 1571 1566 1560 1555 1549 1544 1538 1533 1529 1524 1520 1515 1511 1506 1503 1498 1494 1489 1484 1480 1476 1472 1468 1465 1463
1570 1575 1578 1580 1587 1588 1589 1590 1594 1600 1604 1608 1609 1609 1609 1608 1607 1605 1601 1597 1592 1587 1581 1576 1570 1565 1560 1554 1548 1542 1536 1531 1526 1520 1516 1513 1509 1505 1501 1497 1492 1487 1483 1478 1474 1471 1467 1463 1461
1576 1579 1579 1579 1586 1584 1589 1590 1592 1597 1602 1605 1607 1607 1608 1607 1606 1604 1600 1595 1591 1586 1581 1575 1570 1564 1559 1553 1547 1541 1536 1530 1525 1520 1515 1511 1506 1502 1499 1494 1490 1485 1481 1476 1472 1469 1465 1462 1459
1580 1579 1580 1579 1581 1583 1586 1589 1590 1596 1601 1603 1605 1606 1607 1607 1605 1602 1599 1595 1590 1585 1580 1574 1569 1563 1558 1552 1547 1541 1536 1530 1524 1519 1513 1508 1503 1500 1496 1491 1486 1481 1477 1473 1469 1465 1462 1459 1456
1580 1579 1578 1579 1582 1585 1570 1581 1587 1595 1596 1601 1604 1606 1606 1606 1604 1601 1598 1594 1589 1584 1578 1573 1567 1562 1556 1551 1545 1540 1534 1528 1522 1516 1510 1505 1500 1496 1492 1487 1482 1478 1474 1469 1465 1461 1458 1454 1452
1580 1582 1583 1583 1585 1578 1568 1573 1596 1600 1600 1603 1605 1606 1606 1604 1603 1600 1596 1592 1587 1582 1576 1571 1565 1560 1554 1549 1543 1538 1532 1527 1521 1515 1509 1503 1498 1493 1488 1484 1479 1474 1470 1465 1461 1456 1453 1449 1447
1581 1582 1595 1599 1589 1576 1568 1582 1605 1602 1603 1605 1605 1605 1605 1603 1601 1599 1595 1591 1586 1581 1575 1570 1564 1558 1552 1547 1541 1536 1531 1525 1520 1514 1509 1503 1497 1491 1486 1481 1475 1471 1466 1461 1457 1452 1448 1445 1442
1586 1586 1588 1593 1585 1582 1572 1603 1605 1603 1604 1604 1604 1604 1604 1602 1600 1598 1594 1589 1585 1579 1574 1569 1563 1557 1551 1545 1539 1534 1528 1523 1518 1512 1507 1501 1495 1489 1484 1478 1472 1467 1462 1457 1453 1448 1444 1440 1437
1588 1588 1590 1592 1596 1594 1576 1581 1597 1602 1602 1603 1603 1603 1603 1601 1599 1596 1593 1588 1583 1578 1573 1568 1562 1556 1550 1544 1538 1532 1526 1521 1515 1510 1504 1498 1493 1487 1481 1475 1469 1464 1459 1454 1449 1444 1440 1436 1432
1588 1587 1587 1589 1591 1600 1595 1595 1597 1601 1602 1603 1602 1602 1602 1600 1598 1595 1591 1587 1582 1577 1572 1566 1560 1554 1547 1541 1535 1529 1523 1518 1512 1507 1501 1495 1490 1484 1478 1472 1466 1461 1455 1450 1445 1440 1436 1432 1428
1589 1589 1590 1597 1594 1588 1593 1602 1598 1600 1600 1601 1601 1601 1600 1599 1596 1593 1589 1585 1580 1575 1570 1564 1558 1552 1545 1539 1532 1526 1520 1514 1509 1503 1498 1492 1487 1481 1476 1470 1464 1458 1452 1447 1442 1437 1432 1428 1425